BREEZE-M DEB (TANK), 45988

Orbit data source: Space-Track

BREEZE-M DEB (TANK), 45988 is space debris in HEO originally from a launch on Thu, 30 Jul 2020 UTC launched from the Tyuratam Missile And Space Complex (TTMTR). Debris objects in space refer to the collection of defunct objects orbiting the Earth. Examples of debris include non-operational satellites, rocket bodies, and fragments generated from explosions, collisions, or faulty payload assembly.

Loading next visibility...
Identifier
45988, 2020-053D
Orbit
HEO
Country
Flag of CISCIS
Related business
Manufacturer
Khrunichev
Mission
Spacecraft
Bus & Motor
BRIZ TANK, Unknown motor
Mass
~1,000 kg wet, 1,000 kg dry
Launch date (UTC)
2020-07-30 (5 years ago)
Launch vehicle
Unknown
Launch site
Tyuratam Missile And Space Complex (TTMTR)
Object type
Payload
Rocket body
Debris
Shape & HBR
Torus, Unknown HBR
Radar Cross Section
8.218 m², Large (>1 m²)

Expand to show TLE details & history
Last TLE update: 3 days ago

TLE from 3 days ago
0 BREEZE-M DEB (TANK)
1 45988U 20053D   25258.03159889  .00000269  00000-0  61857-3 0  9996
2 45988  49.5329 137.0103 6202511 193.9698 134.8205  3.63917251 66748
Epoch: 2025-09-15T00:45Z
TLE epoch observation values (Epoch: 2025-09-15T00:45:30.144Z)
Latitude
-0.00001°
Longitude
131.40549°
Altitude
21,220.43 km
Speed
2.562 km/s
True Right ascension
09h 08m 05s
True Declination
0° 00' 00"
Sunlit
Object was in daylight at epoch
Visualization orbit readout
Latitude
Unknown
Longitude
Unknown
Altitude
Unknown
Speed
Unknown
Apparent Right ascension
Unknown
Apparent Declination
Unknown
Sunlit
N/A
Visualization observer readout
Local Sidereal Time
17:02:00
Azimuth
Unknown
Elevation
Unknown
Doppler factor
Unknown
Orbital elements
Apogee altitude
22,550.794 km
Perigee altitude
402.127 km
Semi-major axis
17,854.598 km
Eccentricity
0.62025
Inclination
49.5329°
RAAN
137.0103°
Arg. of periapsis
193.9698°
True anomaly
166.07228°
Mean anomaly
134.8205°
Eccentric anomaly
151.67965°
Mean motion
0.90974 °/min
Orbital period
395.72 mins
BSTAR
0.00061857
Loading maneuver chart data...
Computing Atmospheric mass density...
Loading historical data...
Loading historical data...
Loading historical data...
Loading historical data...
Loading historical data...
Loading historical data...
Loading historical data...
Other satellites on launch #53 in the year 2020 (2020-07-30 UTC)

Documentation

Showing up to 5 results
|